ANZ948 NZWN-NZNP

Flight info

Callsign ANZ948
Flight time 1h 2m
Altitude 23000
Route ATVIN Y631 MEVAX H499 NP
Aircraft A21N/M-SDE2E3FGHIRWXY/LB1

Departure

Time 2026-04-22 01:52
Airport Wellington International Airport (NZWN)

Arrival

Time 2026-04-22 02:54
Airport New Plymouth Airport (NZNP)
Time Latitude Longitude Altitude Speed Heading
2026-04-22 01:36 -41.32774 174.80997 34 ft 0 kts 128°
2026-04-22 01:45 -41.32769 174.80987 35 ft 2 kts 128°
2026-04-22 01:46 -41.32760 174.80972 33 ft 2 kts 137°
2026-04-22 01:46 -41.32745 174.80961 35 ft 2 kts 174°
2026-04-22 01:46 -41.32728 174.80965 36 ft 3 kts 214°
2026-04-22 01:46 -41.32715 174.80980 33 ft 2 kts 223°
2026-04-22 01:47 -41.32704 174.80998 30 ft 3 kts 253°
2026-04-22 01:47 -41.32702 174.81011 33 ft 0 kts 275°
2026-04-22 01:48 -41.32701 174.81007 33 ft 3 kts 275°
2026-04-22 01:48 -41.32705 174.80912 37 ft 19 kts 253°
2026-04-22 01:48 -41.32697 174.80828 38 ft 3 kts 339°
2026-04-22 01:48 -41.32659 174.80821 41 ft 9 kts
2026-04-22 01:49 -41.32557 174.80827 42 ft 20 kts
2026-04-22 01:49 -41.32374 174.80839 46 ft 32 kts
2026-04-22 01:49 -41.32111 174.80857 52 ft 40 kts
2026-04-22 01:49 -41.31919 174.80856 55 ft 11 kts 329°
2026-04-22 01:50 -41.31913 174.80850 54 ft 0 kts 322°
2026-04-22 01:51 -41.31900 174.80830 53 ft 8 kts 304°
2026-04-22 01:51 -41.31925 174.80746 53 ft 12 kts 203°
2026-04-22 01:51 -41.31942 174.80741 53 ft 0 kts 189°
2026-04-22 01:51 -41.32159 174.80724 49 ft 81 kts 182°
2026-04-22 01:52 -41.33030 174.80660 374 ft 156 kts 182°
2026-04-22 01:52 -41.34235 174.80566 1389 ft 184 kts 182°
2026-04-22 01:52 -41.35558 174.80484 2781 ft 191 kts 182°
2026-04-22 01:52 -41.36839 174.80368 4412 ft 179 kts 186°
2026-04-22 01:53 -41.38029 174.79874 5740 ft 182 kts 198°
2026-04-22 01:53 -41.39210 174.79183 6885 ft 189 kts 198°
2026-04-22 01:53 -41.40423 174.78476 7965 ft 196 kts 197°
2026-04-22 01:53 -41.41695 174.77746 9125 ft 201 kts 196°
2026-04-22 01:54 -41.43026 174.76995 10247 ft 209 kts 196°
2026-04-22 01:54 -41.44365 174.76246 11267 ft 214 kts 196°
2026-04-22 01:54 -41.45752 174.75474 12354 ft 218 kts 197°
2026-04-22 01:54 -41.47162 174.74691 13466 ft 221 kts 198°
2026-04-22 01:55 -41.48594 174.73891 14483 ft 225 kts 199°
2026-04-22 01:55 -41.49951 174.72792 15410 ft 235 kts 219°
2026-04-22 01:55 -41.50801 174.70893 16361 ft 249 kts 252°
2026-04-22 01:55 -41.50663 174.68573 17441 ft 261 kts 288°
2026-04-22 01:56 -41.49494 174.66701 18619 ft 273 kts 321°
2026-04-22 01:56 -41.47728 174.65716 19630 ft 280 kts 341°
2026-04-22 01:56 -41.45754 174.65556 20538 ft 292 kts
2026-04-22 01:56 -41.43678 174.66067 21028 ft 316 kts
2026-04-22 01:57 -41.41470 174.66807 21395 ft 339 kts 10°
2026-04-22 01:57 -41.39110 174.67608 21751 ft 360 kts
2026-04-22 01:57 -41.36610 174.68433 22102 ft 380 kts
2026-04-22 01:57 -41.33989 174.69280 22577 ft 394 kts
2026-04-22 01:58 -41.31291 174.70140 23080 ft 402 kts
2026-04-22 01:58 -41.28582 174.71000 23209 ft 397 kts
2026-04-22 01:58 -41.25910 174.71842 23215 ft 393 kts
2026-04-22 01:58 -41.23249 174.72675 23212 ft 393 kts
2026-04-22 01:59 -41.20591 174.73501 23201 ft 392 kts
2026-04-22 01:59 -41.17904 174.73925 23207 ft 386 kts 355°
2026-04-22 01:59 -41.15236 174.73714 23200 ft 384 kts 350°
2026-04-22 01:59 -41.12582 174.73333 23194 ft 384 kts 349°
2026-04-22 02:00 -41.09929 174.72927 23194 ft 384 kts 349°
2026-04-22 02:00 -41.07275 174.72525 23189 ft 384 kts 349°
2026-04-22 02:00 -41.04617 174.72130 23185 ft 384 kts 349°
2026-04-22 02:00 -41.01960 174.71737 23177 ft 385 kts 349°
2026-04-22 02:01 -40.99301 174.71349 23175 ft 385 kts 350°
2026-04-22 02:01 -40.96638 174.70964 23170 ft 385 kts 350°
2026-04-22 02:01 -40.93977 174.70580 23172 ft 385 kts 350°
2026-04-22 02:01 -40.91313 174.70194 23171 ft 385 kts 350°
2026-04-22 02:02 -40.88649 174.69809 23178 ft 385 kts 350°
2026-04-22 02:02 -40.85982 174.69424 23166 ft 386 kts 350°
2026-04-22 02:02 -40.83314 174.69039 23163 ft 386 kts 350°
2026-04-22 02:02 -40.80645 174.68656 23165 ft 386 kts 350°
2026-04-22 02:03 -40.77979 174.68272 23168 ft 386 kts 351°
2026-04-22 02:03 -40.75303 174.67888 23167 ft 386 kts 351°
2026-04-22 02:03 -40.72665 174.67537 23169 ft 387 kts 352°
2026-04-22 02:03 -40.69975 174.67328 23165 ft 388 kts 355°
2026-04-22 02:04 -40.64576 174.67169 23165 ft 389 kts 356°
2026-04-22 02:04 -40.61871 174.67127 23167 ft 389 kts 356°
2026-04-22 02:04 -40.59165 174.67080 23166 ft 389 kts 356°
2026-04-22 02:05 -40.56460 174.67020 23164 ft 389 kts 356°
2026-04-22 02:05 -40.53754 174.66951 23160 ft 389 kts 356°
2026-04-22 02:05 -40.51047 174.66876 23165 ft 389 kts 356°
2026-04-22 02:05 -40.48342 174.66797 23160 ft 389 kts 356°
2026-04-22 02:06 -40.45635 174.66715 23162 ft 389 kts 356°
2026-04-22 02:06 -40.42926 174.66632 23160 ft 389 kts 356°
2026-04-22 02:06 -40.40219 174.66549 23161 ft 389 kts 356°
2026-04-22 02:06 -40.37507 174.66466 23159 ft 390 kts 356°
2026-04-22 02:07 -40.34794 174.66385 23158 ft 390 kts 356°
2026-04-22 02:07 -40.32084 174.66305 23157 ft 390 kts 356°
2026-04-22 02:07 -40.29370 174.66224 23158 ft 390 kts 357°
2026-04-22 02:07 -40.26655 174.66144 23157 ft 390 kts 357°
2026-04-22 02:08 -40.23938 174.66063 23155 ft 391 kts 357°
2026-04-22 02:08 -40.21221 174.65983 23155 ft 391 kts 357°
2026-04-22 02:08 -40.18502 174.65903 23155 ft 391 kts 357°
2026-04-22 02:08 -40.15783 174.65822 23150 ft 391 kts 357°
2026-04-22 02:09 -40.13060 174.65741 23148 ft 391 kts 357°
2026-04-22 02:09 -40.10337 174.65659 23149 ft 392 kts 357°
2026-04-22 02:09 -40.07612 174.65578 23147 ft 392 kts 357°
2026-04-22 02:09 -40.04884 174.65496 23145 ft 392 kts 357°
2026-04-22 02:10 -40.02156 174.65414 23147 ft 393 kts 357°
2026-04-22 02:10 -39.99423 174.65333 23146 ft 393 kts 357°
2026-04-22 02:10 -39.96691 174.65254 23145 ft 393 kts 357°
2026-04-22 02:10 -39.93958 174.65174 23147 ft 393 kts 357°
2026-04-22 02:11 -39.91223 174.65093 23141 ft 393 kts 357°
2026-04-22 02:11 -39.88486 174.65011 23143 ft 394 kts 357°
2026-04-22 02:11 -39.85745 174.64930 23144 ft 394 kts 357°
2026-04-22 02:11 -39.83005 174.64849 23138 ft 394 kts 357°
2026-04-22 02:12 -39.80262 174.64769 23139 ft 395 kts 357°
2026-04-22 02:12 -39.77513 174.64688 23137 ft 395 kts 357°
2026-04-22 02:12 -39.74768 174.64607 23138 ft 395 kts 358°
2026-04-22 02:12 -39.72032 174.64373 23135 ft 394 kts 349°
2026-04-22 02:13 -39.69397 174.63443 23134 ft 392 kts 338°
2026-04-22 02:13 -39.66862 174.62091 23197 ft 399 kts 334°
2026-04-22 02:13 -39.64403 174.60582 22961 ft 393 kts 332°
2026-04-22 02:13 -39.61972 174.58977 21967 ft 395 kts 331°
2026-04-22 02:14 -39.59505 174.57291 20677 ft 406 kts 330°
2026-04-22 02:14 -39.56974 174.55548 19361 ft 417 kts 331°
2026-04-22 02:14 -39.54386 174.53779 18270 ft 422 kts 331°
2026-04-22 02:14 -39.51786 174.52024 17229 ft 420 kts 332°
2026-04-22 02:15 -39.49213 174.50307 16413 ft 413 kts 332°
2026-04-22 02:15 -39.46689 174.48634 15780 ft 402 kts 332°
2026-04-22 02:15 -39.44229 174.47007 15171 ft 392 kts 331°
2026-04-22 02:15 -39.41847 174.45434 14862 ft 375 kts 331°
2026-04-22 02:16 -39.39573 174.43933 14638 ft 359 kts 331°
2026-04-22 02:16 -39.37398 174.42497 14418 ft 343 kts 331°
2026-04-22 02:16 -39.35308 174.41117 14102 ft 333 kts 330°
2026-04-22 02:16 -39.33247 174.39754 13526 ft 333 kts 330°
2026-04-22 02:17 -39.31191 174.38394 12941 ft 331 kts 331°
2026-04-22 02:17 -39.29148 174.37045 12402 ft 328 kts 332°
2026-04-22 02:17 -39.27124 174.35710 11892 ft 325 kts 332°
2026-04-22 02:17 -39.25068 174.34544 11410 ft 322 kts 345°
2026-04-22 02:18 -39.22866 174.34306 10942 ft 315 kts
2026-04-22 02:18 -39.20703 174.34561 10506 ft 310 kts
2026-04-22 02:18 -39.18576 174.34895 10061 ft 306 kts
2026-04-22 02:18 -39.16482 174.35227 9553 ft 301 kts
2026-04-22 02:19 -39.14408 174.35547 9022 ft 299 kts
2026-04-22 02:19 -39.12351 174.35856 8526 ft 297 kts 10°
2026-04-22 02:19 -39.10303 174.36160 8035 ft 296 kts 10°
2026-04-22 02:19 -39.08255 174.36462 7505 ft 295 kts 11°
2026-04-22 02:20 -39.06218 174.36762 6957 ft 294 kts 11°
2026-04-22 02:20 -39.04188 174.37060 6413 ft 293 kts 11°
2026-04-22 02:20 -39.02161 174.37338 5839 ft 294 kts
2026-04-22 02:20 -39.00124 174.36927 5241 ft 302 kts 344°
2026-04-22 02:21 -38.98161 174.35893 4534 ft 308 kts 337°
2026-04-22 02:21 -38.96423 174.34290 3802 ft 311 kts 308°
2026-04-22 02:21 -38.95544 174.31852 3352 ft 293 kts 272°
2026-04-22 02:21 -38.95770 174.29432 3129 ft 259 kts 238°
2026-04-22 02:22 -38.96636 174.27535 2984 ft 238 kts 228°
2026-04-22 02:22 -38.97518 174.25794 2751 ft 230 kts 229°
2026-04-22 02:22 -38.98346 174.24010 2272 ft 235 kts 233°
2026-04-22 02:22 -38.99097 174.22183 1981 ft 227 kts 236°
2026-04-22 02:23 -38.99771 174.20410 1691 ft 211 kts 236°
2026-04-22 02:23 -39.00171 174.19313 1512 ft 199 kts 236°
2026-04-22 02:23 -39.00845 174.17228 1263 ft 188 kts 241°
2026-04-22 02:23 -39.01312 174.15478 1728 ft 226 kts 240°
2026-04-22 02:24 -39.01931 174.13473 2273 ft 256 kts 243°
2026-04-22 02:24 -39.02355 174.11950 2710 ft 280 kts 245°
2026-04-22 02:24 -39.03191 174.08504 3724 ft 328 kts 248°
2026-04-22 02:24 -39.03590 174.06565 4280 ft 325 kts 250°
2026-04-22 02:25 -39.04002 174.03896 4962 ft 288 kts 255°
2026-04-22 02:25 -39.04222 174.01363 5577 ft 285 kts 261°
2026-04-22 02:25 -39.04266 173.98801 6216 ft 289 kts 266°
2026-04-22 02:25 -39.04113 173.96201 6858 ft 294 kts 273°
2026-04-22 02:26 -39.03737 173.93597 7484 ft 298 kts 281°
2026-04-22 02:26 -39.03111 173.91046 8127 ft 300 kts 289°
2026-04-22 02:26 -39.02219 173.88612 8778 ft 302 kts 297°
2026-04-22 02:26 -39.01052 173.86372 9456 ft 302 kts 307°
2026-04-22 02:27 -38.99613 173.84420 10128 ft 301 kts 318°
2026-04-22 02:27 -38.97844 173.82783 10794 ft 328 kts 329°
2026-04-22 02:27 -38.95711 173.81513 11522 ft 346 kts 340°
2026-04-22 02:27 -38.93373 173.80780 12245 ft 356 kts 351°
2026-04-22 02:28 -38.90920 173.80117 12364 ft 363 kts 341°
2026-04-22 02:28 -38.88716 173.78574 12370 ft 361 kts 319°
2026-04-22 02:28 -38.87097 173.76171 12356 ft 353 kts 297°
2026-04-22 02:28 -38.86279 173.73336 12171 ft 328 kts 275°
2026-04-22 02:29 -38.86351 173.70548 11931 ft 302 kts 251°
2026-04-22 02:29 -38.87012 173.68076 11718 ft 287 kts 248°
2026-04-22 02:29 -38.87264 173.65562 11511 ft 285 kts 269°
2026-04-22 02:29 -38.86848 173.63106 11332 ft 281 kts 288°
2026-04-22 02:30 -38.85738 173.61084 11156 ft 278 kts 317°
2026-04-22 02:30 -38.84069 173.59930 10941 ft 273 kts 346°
2026-04-22 02:30 -38.82183 173.59676 10439 ft 276 kts
2026-04-22 02:30 -38.80304 173.60206 9817 ft 280 kts 29°
2026-04-22 02:31 -38.78715 173.61614 9282 ft 277 kts 44°
2026-04-22 02:31 -38.77302 173.63266 8809 ft 273 kts 50°
2026-04-22 02:31 -38.75979 173.64992 8370 ft 270 kts 51°
2026-04-22 02:31 -38.74683 173.66707 7953 ft 265 kts 53°
2026-04-22 02:32 -38.73665 173.68609 7547 ft 255 kts 68°
2026-04-22 02:32 -38.72895 173.70632 7116 ft 251 kts 71°
2026-04-22 02:32 -38.72219 173.72673 6711 ft 245 kts 79°
2026-04-22 02:32 -38.71909 173.74776 6301 ft 238 kts 88°
2026-04-22 02:33 -38.71724 173.76865 5856 ft 235 kts 89°
2026-04-22 02:33 -38.71545 173.78922 5566 ft 228 kts 89°
2026-04-22 02:33 -38.71368 173.80884 5414 ft 216 kts 89°
2026-04-22 02:33 -38.71190 173.82750 5278 ft 206 kts 89°
2026-04-22 02:34 -38.71008 173.84527 5112 ft 198 kts 89°
2026-04-22 02:34 -38.70823 173.86263 4849 ft 196 kts 89°
2026-04-22 02:34 -38.70634 173.87977 4585 ft 193 kts 89°
2026-04-22 02:34 -38.70442 173.89677 4291 ft 193 kts 89°
2026-04-22 02:35 -38.70248 173.91374 4052 ft 192 kts 89°
2026-04-22 02:35 -38.70046 173.93064 4014 ft 191 kts 89°
2026-04-22 02:35 -38.69845 173.94687 4005 ft 178 kts 89°
2026-04-22 02:35 -38.69647 173.96195 4001 ft 168 kts 89°
2026-04-22 02:36 -38.69448 173.97669 4012 ft 168 kts 89°
2026-04-22 02:36 -38.69253 173.99140 4016 ft 167 kts 91°
2026-04-22 02:36 -38.69233 174.00599 4012 ft 162 kts 101°
2026-04-22 02:36 -38.69312 174.02035 4012 ft 161 kts 102°
2026-04-22 02:37 -38.69408 174.03464 4009 ft 161 kts 102°
2026-04-22 02:37 -38.69505 174.04892 4008 ft 161 kts 102°
2026-04-22 02:37 -38.69602 174.06320 4011 ft 161 kts 102°
2026-04-22 02:37 -38.69701 174.07746 4013 ft 161 kts 102°
2026-04-22 02:38 -38.69799 174.09171 4010 ft 161 kts 102°
2026-04-22 02:38 -38.69896 174.10602 4010 ft 161 kts 102°
2026-04-22 02:38 -38.69993 174.12034 4007 ft 162 kts 102°
2026-04-22 02:38 -38.70092 174.13464 3987 ft 161 kts 102°
2026-04-22 02:39 -38.70190 174.14888 3862 ft 160 kts 102°
2026-04-22 02:39 -38.70279 174.16288 3728 ft 160 kts 102°
2026-04-22 02:39 -38.70364 174.17703 3608 ft 159 kts 102°
2026-04-22 02:39 -38.70447 174.19117 3483 ft 159 kts 102°
2026-04-22 02:40 -38.70529 174.20526 3352 ft 159 kts 102°
2026-04-22 02:40 -38.70608 174.21937 3226 ft 159 kts 102°
2026-04-22 02:40 -38.70687 174.23354 3094 ft 160 kts 102°
2026-04-22 02:40 -38.70775 174.24773 3013 ft 160 kts 102°
2026-04-22 02:41 -38.70866 174.26196 3005 ft 161 kts 102°
2026-04-22 02:41 -38.70953 174.27622 3007 ft 161 kts 102°
2026-04-22 02:41 -38.71034 174.29046 3004 ft 160 kts 102°
2026-04-22 02:41 -38.71108 174.30468 3001 ft 160 kts 103°
2026-04-22 02:42 -38.71256 174.31860 3000 ft 155 kts 113°
2026-04-22 02:42 -38.71635 174.33131 2997 ft 152 kts 119°
2026-04-22 02:42 -38.72069 174.34364 3002 ft 152 kts 120°
2026-04-22 02:42 -38.72509 174.35592 3000 ft 152 kts 120°
2026-04-22 02:43 -38.72944 174.36807 3016 ft 145 kts 120°
2026-04-22 02:43 -38.73338 174.37937 3012 ft 136 kts 120°
2026-04-22 02:43 -38.73828 174.38944 3000 ft 132 kts 137°
2026-04-22 02:43 -38.74541 174.39668 2897 ft 131 kts 150°
2026-04-22 02:44 -38.75389 174.40127 2750 ft 134 kts 158°
2026-04-22 02:44 -38.76275 174.40504 2595 ft 134 kts 159°
2026-04-22 02:44 -38.77164 174.40864 2507 ft 134 kts 159°
2026-04-22 02:44 -38.78054 174.41218 2500 ft 134 kts 159°
2026-04-22 02:45 -38.78945 174.41566 2499 ft 135 kts 160°
2026-04-22 02:45 -38.79842 174.41923 2501 ft 135 kts 159°
2026-04-22 02:45 -38.80741 174.42279 2500 ft 135 kts 159°
2026-04-22 02:45 -38.81633 174.42631 2502 ft 134 kts 159°
2026-04-22 02:46 -38.82520 174.42985 2505 ft 133 kts 160°
2026-04-22 02:46 -38.83426 174.43256 2506 ft 135 kts 167°
2026-04-22 02:46 -38.84367 174.43383 2500 ft 136 kts 169°
2026-04-22 02:46 -38.85315 174.43478 2503 ft 137 kts 171°
2026-04-22 02:47 -38.86264 174.43534 2500 ft 138 kts 179°
2026-04-22 02:47 -38.87179 174.43289 2490 ft 129 kts 187°
2026-04-22 02:47 -38.87978 174.42941 2481 ft 116 kts 189°
2026-04-22 02:47 -38.88724 174.42573 2494 ft 116 kts 195°
2026-04-22 02:48 -38.89424 174.42029 2508 ft 118 kts 201°
2026-04-22 02:48 -38.90094 174.41433 2506 ft 119 kts 202°
2026-04-22 02:48 -38.90724 174.40708 2507 ft 127 kts 218°
2026-04-22 02:48 -38.91187 174.39707 2500 ft 136 kts 234°
2026-04-22 02:49 -38.91506 174.38549 2511 ft 138 kts 238°
2026-04-22 02:49 -38.91838 174.37397 2512 ft 137 kts 235°
2026-04-22 02:49 -38.92275 174.36347 2513 ft 131 kts 224°
2026-04-22 02:49 -38.92764 174.35360 2511 ft 131 kts 223°
2026-04-22 02:50 -38.93263 174.34378 2516 ft 131 kts 223°
2026-04-22 02:50 -38.93776 174.33425 2514 ft 129 kts 221°
2026-04-22 02:50 -38.94299 174.32490 2517 ft 129 kts 220°
2026-04-22 02:50 -38.94821 174.31550 2515 ft 130 kts 220°
2026-04-22 02:51 -38.95344 174.30600 2516 ft 130 kts 220°
2026-04-22 02:51 -38.95867 174.29660 2446 ft 129 kts 220°
2026-04-22 02:51 -38.96367 174.28759 2360 ft 120 kts 220°
2026-04-22 02:51 -38.96840 174.27888 2313 ft 118 kts 220°
2026-04-22 02:52 -38.97303 174.27023 2317 ft 117 kts 220°
2026-04-22 02:52 -38.97768 174.26165 2188 ft 117 kts 220°
2026-04-22 02:52 -38.98235 174.25300 1900 ft 121 kts 227°
2026-04-22 02:52 -38.98452 174.24179 1515 ft 132 kts 243°
2026-04-22 02:53 -38.98754 174.23072 1174 ft 128 kts 232°
2026-04-22 02:53 -38.99113 174.22011 851 ft 129 kts 233°
2026-04-22 02:53 -38.99514 174.21011 603 ft 124 kts 229°
2026-04-22 02:53 -38.99903 174.20034 356 ft 120 kts 231°
2026-04-22 02:54 -39.00281 174.19079 229 ft 119 kts 229°
2026-04-22 02:54 -39.00640 174.18112 101 ft 121 kts 232°
2026-04-22 02:54 -39.00927 174.17399 100 ft 50 kts 250°
2026-04-22 02:54 -39.00973 174.17266 100 ft 0 kts 242°
2026-04-22 02:55 -39.00970 174.17260 100 ft 1 kts 301°
2026-04-22 02:55 -39.00936 174.17293 100 ft 16 kts 63°
2026-04-22 02:55 -39.00869 174.17501 99 ft 33 kts 68°
2026-04-22 02:56 -39.00799 174.17770 98 ft 20 kts 109°
2026-04-22 02:56 -39.00852 174.17831 101 ft 0 kts 155°
2026-04-22 02:57 -39.00853 174.17832 101 ft 1 kts 157°
2026-04-22 02:58 -39.00874 174.17837 101 ft 5 kts 174°
2026-04-22 02:58 -39.00915 174.17825 100 ft 7 kts 207°
2026-04-22 02:58 -39.00942 174.17793 100 ft 2 kts 232°
2026-04-22 02:58 -39.00956 174.17782 101 ft 2 kts 184°
2026-04-22 02:59 -39.00962 174.17791 100 ft 1 kts 107°
2026-04-22 02:59 -39.00961 174.17794 100 ft 0 kts 92°